Location: Izdebno
(52.6670°N, 16.2170°E)
Time: 11:38:38
(UTC+02:00)

Vanguard 2 - Pass Details

Date: 03 February 2023
Orbit: 553 x 2927 km, 32.9° (Epoch: 26 March)

Event Time Altitude Azimuth Distance (km) Brightness Sun altitude
Rises 04:06:41 0° 270° (W) 6,765 - -31.5°
Reaches altitude 10° 04:13:42 10° 254° (WSW) 5,742 - -30.5°
Maximum altitude 04:22:42 17° 222° (SW) 4,945 - -29.2°
Exits shadow 04:25:35 16° 210° (SSW) 4,885 11.2 -28.7°
Drops below altitude 10° 04:30:50 10° 190° (S) 5,070 11.5 -27.9°
Sets 04:36:25 0° 171° (S) 5,660 12.0 -27.1°
